Regional Weather Roundup
Issued by NWS State College, PA

Home | Current Version | Previous Version | Graphics & Text | Print | Product List | Glossary On
Versions: 1 2 3 4 5 6 7 8 9 10 11 12 13 14 15 16 17 18 19 20 21 22 23 24 25 26 27 28 29 30 31 32 33 34 35 36 37 38 39 40 41 42 43 44 45 46 47 48 49 50
000
ASUS41 KCTP 010503
RWRCTP

REGIONAL WEATHER ROUNDUP
NATIONAL WEATHER SERVICE STATE COLLEGE PA
100 AM EDT MON SEP 01 2014

Note: "fair" indicates few or no clouds below 12,000 feet with no
significant weather and/or obstructions to visibility.

* = STATION THAT DOES NOT REPORT PRECIPITATION /E.G. RAIN...SNOW...ETC/
    THUNDER OR FOG.

PAZ002>004-007>009-013>016-020>023-029>032-010600-
WESTERN PENNSYLVANIA

CITY           SKY/WX    TMP DP  RH WIND       PRES   REMARKS
ERIE           CLEAR     71  67  87 S6        29.98S
MEADVILLE      CLOUDY    70  68  93 VRB3      30.02S FOG
FRANKLIN*      CLOUDY    70  66  88 SW5       30.05R
NEW CASTLE     CLOUDY    71  71 100 CALM      30.03S
BEAVER COUNTY  NOT AVBL
BUTLER*        CLOUDY    70  66  88 SW7       30.05S
PITTSBURGH INT CLOUDY    71  69  93 SW7       30.03F
PITTSBURGH     CLOUDY    70  68  93 S7        30.04S
INDIANA*       CLOUDY    70  70 100 SW7       30.09S
LATROBE        CLOUDY    72  72 100 S8        30.06S
WASHINGTON CO* CLOUDY    70  66  88 SW3       30.05F
$$

PAZ004>006-010>012-017>019-024>028-033>037-041-042-045-046-049>053-010600-
CENTRAL PENNSYLVANIA

CITY           SKY/WX    TMP DP  RH WIND       PRES   REMARKS
BRADFORD       CLOUDY    68  66  93 SW3       30.06S
DUBOIS         LGT RAIN  69  68  96 SW6       30.05S FOG
CLEARFIELD     CLOUDY    69  68  96 CALM      30.05F FOG
JOHNSTOWN      CLOUDY    68  65  90 SW7       30.09F
ALTOONA        CLOUDY    69  67  93 SW5       30.07S
STATE COLLEGE  PTCLDY    67  67  98 CALM      30.04S
WILLIAMSPORT   CLOUDY    69  67  93 N3        30.00S FOG
SELINSGROVE    PTCLDY    68  67  96 CALM      30.02S FOG
FT INDIANTOWN  MOCLDY    70  70 100 VRB1      30.02S
CAPITAL CITY   MOCLDY    71  69  93 CALM      30.02S
HARRISBURG     MOCLDY    73  70  90 CALM      30.01S
YORK           CLOUDY    71  70  96 CALM      30.02F
$$

PAZ038>040-043-044-047-048-054-055-060>062-067>071-010600-
EASTERN PENNSYLVANIA

CITY           SKY/WX    TMP DP  RH WIND       PRES   REMARKS
SCRANTON       CLOUDY    69  67  93 CALM      30.02F
MOUNT POCONO   CLOUDY    68  65  90 NW6       30.07S
ALLENTOWN      CLOUDY    74  71  91 CALM      30.02R
QUAKERTOWN*    CLOUDY    72  72 100 CALM      30.04R
READING        CLOUDY    75  72  90 S6        30.01R
LANCASTER      CLOUDY    72  71  97 SE3       30.03R
COATESVILLE    CLOUDY    72  72 100 CALM      30.05F
POTTSTOWN      LGT RAIN  73  71  93 CALM      30.04R
BLUE BELL      CLOUDY    73  73 100 SW5       30.03S
DOYLESTOWN     CLOUDY    72  72 100 S5        30.03R
WILLOW GROVE   NOT AVBL
NORTH PHILA    RAIN      76  70  82 SW8       30.05R
PHILADELPHIA   LGT RAIN  75  72  90 W8        30.03S
$$



USA.gov is the U.S. government's official web portal to all federal, state and local government web resources and services.